Погода в Боянце

Украина / Львовская область     50°09′47″N   24°06′08″E
темп.,
°C
ветер,
м/с
пор.,
м/с
влажн.,
%
обл.,
%
осадки,
мм/ч
давл.,
гПа
погр.,
м
4 марта, чт
чт423:00+3юз34870 0.0 102364
02:00+3зюз412880 0.0 1021266
05:00+4зюз614890 0.0 1018338
08:00+4зюз6148617 0.0 1016407
11:00+9з8136576 0.0 1015817
14:00+11з9136167 0.0 10131486
17:00+8сз6106994 0.0 1012965
20:00+4зсз398364 0.0 1013270
5 марта, пт
пт523:00+4з3685100 0.1 1012364
02:00+3зсз359298 0.1 1012271
05:00+2ссз3693100 0.2 1012371
08:000с4698100 2.0 1013292
11:000ссв5791100 1.4 1015597
14:00+2ссв5765100 1.6 10171183
17:00+1ссв4759100 0.0 10191175
20:00−1с3672100 0.0 1022177
6 марта, сб
сб623:00−2сз356945 0.0 1024126
02:00−2сз357123 0.0 1026132
05:00−2зсз377410 0.0 1026262
08:00−2сз59745 0.0 1028608
11:000сз795011 0.0 10291640
14:00+1сз683411 0.0 10301701
17:00+1сз574411 0.0 10301674
20:00−2з356435 0.0 1030115
7 марта, вс
вс723:00−2зюз49660 0.0 1030257
02:00−2зюз612650 0.0 1028464
05:00−2зюз714630 0.0 1026577
08:00−1зюз815594 0.0 1024813
11:00+3з10144712 0.0 10221300
14:00+5з10154626 0.0 10211523
17:00+4з8145417 0.0 10181415
20:00+1з6156524 0.0 1018497
8 марта, пн
пн823:000з5117380 0.0 1018417
02:00−1з497885 0.0 1017349
05:00−2з5108477 0.0 1016357
08:00−1з5108156 0.0 1016607
11:00+2з687098 0.0 1016862
14:00+2зсз688499 0.3 1016708
17:00+1сз588396 0.6 1016737
20:00−2сз367273 0.7 1018124